SR9WXG Weather Reports


Display with metric or nautical units.
time (UTC)temp
F
wind
direction
speed
MPH
gust
MPH
rain 1hr
in
rain 24hr
in
rain mn
in
humidity
%
barometer
mb
20260506165521 32 0 8.0 10.0 0.00 0.00 0.00 100 938.4
20260506164555 32 0 6.0 11.0 0.00 0.00 0.00 100 938.3
20260506163506 32 0 6.0 7.0 0.00 0.00 0.00 100 938.3
20260506162642 32 0 6.0 11.0 0.00 0.00 0.00 100 938.1
20260506162240 32 0 7.0 8.0 0.00 0.00 0.00 100 938.1
20260506161841 32 0 5.0 10.0 0.00 0.00 0.00 100 938.1
20260506161440 32 0 5.0 8.0 0.00 0.00 0.00 100 938.1
20260506161040 32 0 5.0 9.0 0.00 0.00 0.00 100 938.1
20260506160640 32 0 4.0 9.0 0.00 0.00 0.00 100 938.0
20260506160238 32 0 6.0 9.0 0.00 0.00 0.00 100 938.1
20260506155838 32 0 7.0 12.0 0.00 0.00 0.00 100 938.1
20260506155437 32 0 5.0 7.0 0.00 0.00 0.00 100 938.1
20260506155037 32 0 6.0 8.0 0.00 0.00 0.00 100 938.2
20260506154637 32 0 7.0 11.0 0.00 0.00 0.00 100 938.2
20260506154235 32 0 8.0 13.0 0.00 0.00 0.00 100 938.2
20260506153836 32 0 5.0 9.0 0.00 0.00 0.00 100 938.4
20260506153436 32 0 6.0 9.0 0.00 0.00 0.00 100 938.4
20260506153035 32 0 5.0 8.0 0.00 0.00 0.00 100 938.5
20260506152635 32 0 5.0 9.0 0.00 0.00 0.00 100 938.5
20260506152233 32 0 6.0 12.0 0.00 0.00 0.00 100 938.4
20260506151833 32 0 8.0 12.0 0.00 0.00 0.00 100 938.3
20260506151433 32 0 6.0 11.0 0.00 0.00 0.00 100 938.4
20260506151032 32 0 5.0 8.0 0.00 0.00 0.00 100 938.4
20260506150632 32 0 6.0 9.0 0.00 0.00 0.00 100 938.4
20260506150230 32 0 7.0 12.0 0.00 0.00 0.00 100 938.5
20260506145831 32 0 5.0 8.0 0.00 0.00 0.00 100 938.5
20260506145431 32 0 6.0 9.0 0.00 0.00 0.00 100 819.2
20260506145023 32 0 9.0 15.0 0.00 0.00 0.00 100 938.4
20260506144621 32 0 7.0 9.0 0.00 0.00 0.00 100 938.4
20260506144218 32 0 5.0 9.0 0.00 0.00 0.00 100 938.5
20260506143817 32 0 8.0 12.0 0.00 0.00 0.00 100 938.4
20260506143416 32 0 9.0 13.0 0.00 0.00 0.00 100 938.3
20260506143017 32 0 7.0 12.0 0.00 0.00 0.00 100 938.4
20260506142617 32 0 5.0 20.0 0.00 0.00 0.00 100 938.3
20260506142215 32 0 6.0 11.0 0.00 0.00 0.00 100 938.4
20260506141815 32 0 7.0 12.0 0.00 0.00 0.00 100 938.5
20260506141414 32 0 7.0 11.0 0.00 0.00 0.00 100 938.5
20260506141014 32 0 5.0 9.0 0.00 0.00 0.00 100 938.6
20260506140614 32 0 5.0 10.0 0.00 0.00 0.00 100 938.6
20260506140212 32 0 6.0 13.0 0.00 0.00 0.00 100 938.5
20260506135812 32 0 8.0 12.0 0.00 0.00 0.00 100 938.5
20260506135411 32 0 6.0 9.0 0.00 0.00 0.00 100 938.5
20260506135012 32 0 4.0 7.0 0.00 0.00 0.00 100 938.6
20260506134612 32 0 7.0 12.0 0.00 0.00 0.00 100 938.6
20260506134210 32 0 5.0 10.0 0.00 0.00 0.00 100 938.6
20260506133810 32 0 5.0 10.0 0.00 0.00 0.00 100 938.6
20260506133409 32 0 7.0 9.0 0.00 0.00 0.00 100 938.6
20260506133009 32 0 7.0 10.0 0.00 0.00 0.00 100 938.4
20260506132609 32 0 7.0 10.0 0.00 0.00 0.00 100 938.4
20260506132207 32 0 6.0 8.0 0.00 0.00 0.00 100 938.5
20260506131807 32 0 7.0 9.0 0.00 0.00 0.00 100 938.5
20260506131407 32 0 7.0 10.0 0.00 0.00 0.00 100 938.4
20260506131007 32 0 6.0 10.0 0.00 0.00 0.00 100 938.4
20260506130607 32 0 6.0 8.0 0.00 0.00 0.00 100 938.4
20260506130205 32 0 6.0 8.0 0.00 0.00 0.00 100 938.5
20260506125805 32 0 7.0 15.0 0.00 0.00 0.00 100 938.5
20260506125405 32 0 6.0 11.0 0.00 0.00 0.00 100 938.6
20260506125004 32 0 5.0 10.0 0.00 0.00 0.00 100 938.6
20260506124604 32 0 6.0 10.0 0.00 0.00 0.00 100 938.6
20260506124202 32 0 8.0 12.0 0.00 0.00 0.00 100 938.6
20260506123802 32 0 6.0 9.0 0.00 0.00 0.00 100 938.6
20260506122954 32 0 6.0 10.0 0.00 0.00 0.00 100 938.5
20260506122553 32 0 8.0 13.0 0.00 0.00 0.00 100 938.4
20260506122150 32 0 8.0 12.0 0.00 0.00 0.00 100 938.5
20260506121749 32 0 8.0 12.0 0.00 0.00 0.00 100 938.5
20260506121348 32 0 7.0 12.0 0.00 0.00 0.00 100 938.4
20260506120948 32 0 7.0 10.0 0.00 0.00 0.00 100 938.5
20260506120548 32 0 6.0 10.0 0.00 0.00 0.00 100 938.6
20260506120146 32 0 9.0 17.0 0.00 0.00 0.00 100 938.5
20260506115746 32 0 8.0 22.0 0.00 0.00 0.00 100 938.5
20260506115346 32 0 9.0 17.0 0.00 0.00 0.00 100 938.6
20260506114946 32 0 7.0 10.0 0.00 0.00 0.00 100 938.5
20260506114546 32 0 8.0 15.0 0.00 0.00 0.00 100 938.5
20260506114144 32 0 8.0 16.0 0.00 0.00 0.00 100 938.4
20260506113744 32 0 8.0 10.0 0.00 0.00 0.00 100 938.5
20260506113343 32 0 9.0 14.0 0.00 0.00 0.00 100 938.5
20260506112943 32 0 5.0 9.0 0.00 0.00 0.00 100 938.6
20260506112543 32 0 6.0 9.0 0.00 0.00 0.00 100 938.7
20260506112141 32 0 6.0 22.0 0.00 0.00 0.00 100 938.7
20260506111742 32 0 13.0 23.0 0.00 0.00 0.00 100 938.6
20260506111341 32 0 7.0 12.0 0.00 0.00 0.00 100 938.6
20260506110941 32 0 4.0 8.0 0.00 0.00 0.00 100 938.7
20260506110541 32 0 10.0 20.0 0.00 0.00 0.00 100 938.6
20260506110139 32 0 8.0 13.0 0.00 0.00 0.00 100 938.7
20260506105739 32 0 6.0 11.0 0.00 0.00 0.00 100 938.7
20260506105339 32 0 3.0 8.0 0.00 0.00 0.00 100 938.7
20260506104938 32 0 4.0 8.0 0.00 0.00 0.00 100 938.7
20260506104538 32 0 9.0 15.0 0.00 0.00 0.00 100 938.7
20260506104136 32 0 8.0 14.0 0.00 0.00 0.00 100 938.7
20260506103737 32 0 7.0 15.0 0.00 0.00 0.00 100 938.7
20260506103337 32 0 9.0 17.0 0.00 0.00 0.00 100 938.5
20260506102936 32 0 7.0 11.0 0.00 0.00 0.00 100 938.6
20260506102536 32 0 6.0 11.0 0.00 0.00 0.00 100 938.7
20260506102134 32 0 8.0 17.0 0.00 0.00 0.00 100 938.7
20260506101734 32 0 11.0 31.0 0.00 0.00 0.00 100 938.7
20260506101334 32 0 16.0 27.0 0.00 0.00 0.00 100 819.3
20260506100926 32 0 14.0 25.0 0.00 0.00 0.00 100 938.6
20260506100525 32 0 9.0 16.0 0.00 0.00 0.00 100 938.6
20260506100122 32 0 16.0 24.0 0.00 0.00 0.00 100 938.5
20260506095721 32 0 18.0 28.0 0.00 0.00 0.00 100 938.4
20260506095320 32 0 9.0 17.0 0.00 0.00 0.00 100 938.6
20260506094920 32 0 5.0 8.0 0.00 0.00 0.00 100 938.6
20260506094520 32 0 11.0 19.0 0.00 0.00 0.00 100 938.5
20260506094118 32 0 15.0 27.0 0.00 0.00 0.00 100 938.5
20260506093718 32 0 18.0 28.0 0.00 0.00 0.00 100 938.6
20260506093318 32 0 15.0 22.0 0.00 0.00 0.00 100 938.4
20260506092918 32 0 12.0 22.0 0.00 0.00 0.00 100 938.5
20260506092518 32 0 8.0 33.0 0.00 0.00 0.00 100 938.5
20260506092116 32 0 8.0 15.0 0.00 0.00 0.00 100 938.5
20260506091716 32 0 5.0 8.0 0.00 0.00 0.00 100 938.6
20260506091315 32 0 9.0 14.0 0.00 0.00 0.00 100 938.5
20260506090915 32 0 7.0 13.0 0.00 0.00 0.00 100 938.5
20260506090515 32 0 5.0 10.0 0.00 0.00 0.00 100 938.5
20260506090113 32 0 8.0 23.0 0.00 0.00 0.00 100 938.5
20260506085713 32 0 9.0 14.0 0.00 0.00 0.00 100 938.5
20260506085313 32 0 9.0 15.0 0.00 0.00 0.00 100 938.5
20260506084913 32 0 8.0 12.0 0.00 0.00 0.00 100 938.5
20260506084513 32 0 7.0 14.0 0.00 0.00 0.00 100 938.5
20260506084111 32 0 6.0 9.0 0.00 0.00 0.00 100 938.5
20260506083711 32 0 5.0 9.0 0.00 0.00 0.00 100 938.5
20260506083311 32 0 7.0 10.0 0.00 0.00 0.00 100 938.4
20260506082910 32 0 6.0 9.0 0.00 0.00 0.00 100 938.5
20260506082510 32 0 8.0 12.0 0.00 0.00 0.00 100 938.4
20260506082108 32 0 5.0 10.0 0.00 0.00 0.00 100 938.3
20260506081708 32 0 7.0 13.0 0.00 0.00 0.00 100 938.3
20260506081308 32 0 9.0 13.0 0.00 0.00 0.00 100 938.2
20260506080908 32 0 9.0 17.0 0.00 0.00 0.00 100 938.1
20260506080508 32 0 8.0 11.0 0.00 0.00 0.00 100 938.0
20260506080106 32 0 9.0 17.0 0.00 0.00 0.00 100 937.8
20260506073252 32 0 7.0 12.0 0.00 0.00 0.00 100 937.8
20260506072852 32 0 9.0 15.0 0.00 0.00 0.00 100 937.9
20260506072452 32 0 7.0 12.0 0.00 0.00 0.00 100 937.9
20260506072050 32 0 8.0 12.0 0.00 0.00 0.00 100 937.9
20260506071650 32 0 8.0 10.0 0.00 0.00 0.00 100 937.8
20260506071249 32 0 8.0 14.0 0.00 0.00 0.00 100 937.9
20260506070849 32 0 9.0 14.0 0.00 0.00 0.00 100 937.8
20260506070449 32 0 7.0 9.0 0.00 0.00 0.00 100 937.9
20260506062444 32 0 8.0 19.0 0.00 0.00 0.00 100 937.9
20260506062042 32 0 8.0 10.0 0.00 0.00 0.00 100 938.0
20260506061643 32 0 8.0 12.0 0.00 0.00 0.00 100 938.0
20260506061243 32 0 6.0 10.0 0.00 0.00 0.00 100 938.0
20260506060842 32 0 8.0 15.0 0.00 0.00 0.00 100 937.8
20260506060442 32 0 7.0 11.0 0.00 0.00 0.00 100 937.9
20260506051128 32 0 9.0 16.0 0.00 0.00 0.00 100 938.0
20260506050728 32 0 8.0 13.0 0.00 0.00 0.00 100 938.1
20260506050328 32 0 8.0 13.0 0.00 0.00 0.00 100 938.1